15min,AgWx,beryljct,423,08MAY2020:00:00:00,43.1,12.87,41.4,43.3,44.4,44.7,43.3,26,30,25,0.286,11.7,13.9,10.9,1.885,1.5,337,29,3.5,-0.00009,-0.00010,55.8,56.2,14,0,0,37.2,13.52,0.00,0.00
15min,AgWx,beryljct,423,08MAY2020:00:15:00,42.5,12.86,43.4,44.2,43.5,44.2,42.6,28,32,24,0.244,12.5,15.2,10.1,0.482,1.1,332,9.8,3.0,-0.00014,-0.00017,55.6,56.1,14,0,0,36.5,13.52,0.00,0.00
15min,AgWx,beryljct,423,08MAY2020:00:30:00,41.8,12.82,44.5,43.9,43.9,44.1,43.7,24,26,24,0.229,9.9,11.6,9.0,1.096,0.5,341,0.0,1.4,-0.00026,-0.00038,55.3,56.1,14,0,0,35.6,13.52,0.00,0.00
15min,AgWx,beryljct,423,08MAY2020:00:45:00,41.3,12.82,43.2,42.9,42.8,43.9,42.0,26,29,23,0.233,10.6,12.6,8.9,0.877,0.8,340,0.4,2.2,-0.00020,-0.00027,55.1,56.1,14,0,0,35.4,13.52,0.00,0.00
15min,AgWx,beryljct,423,08MAY2020:01:00:00,40.7,12.82,43.4,42.7,42.9,43.3,42.1,25,29,24,0.232,9.6,11.9,8.6,0.329,0.6,340,0.2,1.3,-0.00024,-0.00035,54.8,56.0,14,0,0,36.0,13.52,0.00,0.00
15min,AgWx,beryljct,423,08MAY2020:01:15:00,40.2,12.8,41.4,42.3,42.6,43.1,42.0,25,28,24,0.255,9.5,11.3,8.4,1.052,0.6,340,0.2,1.3,-0.00024,-0.00035,54.6,56.0,14,0,0,35.4,13.52,0.00,0.00
15min,AgWx,beryljct,423,08MAY2020:01:30:00,39.9,12.79,40.9,41.6,42.4,43.2,41.4,26,29,24,0.248,10.0,11.7,8.6,2.411,2.0,4.7,11,3.5,-0.00001,0.00002,54.4,55.9,14,0,0,36.5,13.52,0.00,0.00
15min,AgWx,beryljct,423,08MAY2020:01:45:00,39.6,12.77,38.8,37.0,39.0,41.7,36.8,34,40,26,0.285,12.6,14.6,9.6,4.143,3.2,340,18,4.7,0.00008,0.00014,54.2,55.9,14,0,0,35.3,13.52,0.00,0.00
15min,AgWx,beryljct,423,08MAY2020:02:00:00,38.9,12.76,38.7,38.1,38.8,39.7,37.3,32,38,29,0.269,11.4,13.8,10.0,2.258,3.2,314,5.1,4.2,0.00009,0.00015,53.9,55.8,14,0,0,37.3,13.52,0.00,0.00
15min,AgWx,beryljct,423,08MAY2020:02:15:00,38.4,12.76,40.8,39.4,39.4,40.1,37.7,31,37,28,0.251,11.0,13.5,9.7,2.499,2.5,322,5.2,3.4,0.00003,0.00007,53.7,55.7,14,0,0,37.3,13.52,0.00,0.00
15min,AgWx,beryljct,423,08MAY2020:02:30:00,38.0,12.72,38.7,37.7,39.5,40.9,37.5,31,38,26,0.271,10.8,14.4,8.4,0,0.8,329,2.3,2.6,-0.00017,-0.00023,53.5,55.7,14,0,0,37.6,13.52,0.00,0.00
15min,AgWx,beryljct,423,08MAY2020:02:45:00,37.6,12.74,40.1,39.4,39.6,40.3,37.9,29,35,27,0.242,10.1,12.5,8.7,1.008,0.7,325,0.8,1.7,-0.00020,-0.00028,53.3,55.6,14,0,0,37.5,13.52,0.00,0.00
15min,AgWx,beryljct,423,08MAY2020:03:00:00,37.4,12.72,41.0,40.7,39.7,40.7,38.3,29,35,26,0.222,10.3,13.3,8.2,0.877,1.7,304,8.3,3.6,-0.00005,-0.00004,53.1,55.6,14,0,0,37.4,13.52,0.00,0.00
15min,AgWx,beryljct,423,08MAY2020:03:15:00,37.2,12.72,39.4,39.9,40.2,41.0,39.4,29,32,26,0.259,10.6,12.2,8.4,2.477,1.7,341,44,4.2,-0.00006,-0.00005,52.9,55.5,14,0,0,37.9,13.52,0.00,0.00
15min,AgWx,beryljct,423,08MAY2020:03:30:00,37.2,12.71,33.4,38.3,38.6,40.5,36.2,35,44,29,0.281,12.8,16.1,10.9,1.907,1.4,7.3,36,4.3,-0.00010,-0.00011,52.7,55.4,14,0,0,36.1,13.52,0.00,0.00
15min,AgWx,beryljct,423,08MAY2020:03:45:00,36.7,12.7,39.2,38.8,36.9,38.9,35.3,40,46,32,0.263,14.5,16.8,11.5,3.113,2.6,307,0.1,3.3,0.00001,0.00004,52.6,55.4,14,0,0,36.2,13.52,0.00,0.00
15min,AgWx,beryljct,423,08MAY2020:04:00:00,36.1,12.62,34.0,37.5,37.8,39.8,34.7,37,49,29,0.298,13.5,17.8,10.4,0.57,1.7,307,0.0,3.3,-0.00006,-0.00006,52.4,55.3,14,0,0,37.8,13.52,0.00,0.00
15min,AgWx,beryljct,423,08MAY2020:04:15:00,35.4,12.68,35.4,35.6,34.5,38.4,32.2,49,58,34,0.306,16.8,19.2,12.4,1.447,1.1,307,0.1,2.6,-0.00013,-0.00017,52.2,55.2,14,0,0,36.0,13.53,0.00,0.00
15min,AgWx,beryljct,423,08MAY2020:04:30:00,34.7,12.68,36.1,33.5,33.8,36.1,31.5,49,58,39,0.304,16.5,19.2,13.1,2.959,1.9,317,7.1,3.6,-0.00006,-0.00007,52.0,55.2,14,0,0,36.7,13.52,0.00,0.00
15min,AgWx,beryljct,423,08MAY2020:04:45:00,34.0,12.68,33.2,32.3,33.1,35.2,31.2,50,61,40,0.344,16.1,19.3,13.1,0.066,1.5,316,0.8,3.3,0.00015,0.00025,51.9,55.1,14,0,0,36.0,13.53,0.00,0.00
15min,AgWx,beryljct,423,08MAY2020:05:00:00,33.3,12.68,34.0,33.4,32.6,33.5,31.6,53,57,49,0.335,17.5,18.3,16.3,1.184,0.2,316,0.0,1.4,0.00002,0.00003,51.7,55.0,14,0,0,36.1,13.53,0.00,0.00
15min,AgWx,beryljct,423,08MAY2020:05:15:00,32.6,12.67,31.7,30.9,32.7,33.7,30.7,56,65,51,0.377,18.8,20.4,17.2,0,1.2,316,0.1,2.3,0.00010,0.00018,51.5,54.9,14,0,0,36.0,13.53,0.00,0.00
15min,AgWx,beryljct,423,08MAY2020:05:30:00,32.0,12.67,30.1,30.1,31.3,32.3,30.1,61,66,57,0.364,19.6,20.6,18.7,0,0.1,316,0.0,0.8,0.00003,0.00003,51.3,54.9,14,3,0,36.1,13.53,0.00,0.00
15min,AgWx,beryljct,423,08MAY2020:05:45:00,31.5,12.69,34.6,33.3,31.8,33.5,29.9,57,67,48,0.317,18.2,20.2,16.0,1.798,0.5,317,0.9,2.0,0.00012,0.00016,51.2,54.8,14,18,0,37.5,13.53,0.00,0.00
15min,AgWx,beryljct,423,08MAY2020:06:00:00,32.1,12.7,32.9,33.5,34.6,35.8,32.6,43,53,35,0.318,14.1,17.3,10.9,1.776,1.7,354,5.1,3.0,0.00041,0.00056,51.0,54.7,14,52,0,40.3,13.53,0.00,0.00
15min,AgWx,beryljct,423,08MAY2020:06:15:00,33.0,12.68,31.7,31.0,31.8,33.4,29.7,58,66,50,0.340,18.8,20.8,16.6,1.907,1.9,17,70,3.6,0.00045,0.00058,50.8,54.6,14,90,0,48.5,13.53,0.00,0.00
15min,AgWx,beryljct,423,08MAY2020:06:30:00,34.0,12.71,32.5,32.1,31.3,32.2,30.2,55,64,49,0.304,16.9,19.6,14.8,1.184,2.2,152,5.2,3.7,0.00059,0.00074,50.7,54.5,14,132,0,52.8,13.53,0.00,0.00
15min,AgWx,beryljct,423,08MAY2020:06:45:00,35.4,12.72,37.1,36.5,34.2,36.5,31.7,46,55,36,0.266,15.7,18.4,12.4,2.083,2.3,162,1.8,3.7,0.00082,0.00102,50.5,54.5,14,177,0,60.4,13.53,0.00,0.00
15min,AgWx,beryljct,423,08MAY2020:07:00:00,37.6,12.73,36.8,36.2,36.6,38.8,35.3,46,66,36,0.415,17.6,25.2,12.0,0,0.8,151,13,2.4,0.00096,0.00108,50.4,54.4,14,227,0,69.1,13.53,0.00,0.00
15min,AgWx,beryljct,423,08MAY2020:07:15:00,40.3,12.74,39.9,39.5,38.6,39.9,36.2,42,59,32,0.314,17.1,23.2,11.6,0.395,0.1,130,0.0,0.9,0.00117,0.00126,50.2,54.3,14,280,0,84.0,13.53,0.00,0.00
15min,AgWx,beryljct,423,08MAY2020:07:30:00,43.3,12.79,41.5,41.5,40.4,41.9,39.2,36,40,33,0.346,15.7,19.0,14.2,0,0.3,130,0.0,1.1,0.00146,0.00158,50.1,54.2,14,333,0,89.1,13.53,0.00,0.00
15min,AgWx,beryljct,423,08MAY2020:07:45:00,46.1,12.89,44.1,43.5,42.4,43.5,41.3,37,42,32,0.316,18.2,20.7,15.6,0.614,0.1,130,0.0,0.7,0.00175,0.00187,50.0,54.1,14,387,0,87.8,13.53,0.00,0.00
15min,AgWx,beryljct,423,08MAY2020:08:00:00,48.9,13.05,46.5,45.7,44.9,46.2,43.4,34,38,30,0.342,17.9,22.0,15.2,1.118,0.4,130,0.1,1.8,0.00209,0.00227,49.9,54.1,14,441,0,92.1,13.53,0.00,0.00
15min,AgWx,beryljct,423,08MAY2020:08:15:00,51.4,13.35,48.1,48.4,47.3,48.4,45.6,31,35,28,0.375,18.0,21.1,15.7,3.771,1.9,106,35,5.9,0.00254,0.00291,49.8,54.0,14,495,0,91.5,13.52,0.00,0.00
15min,AgWx,beryljct,423,08MAY2020:08:30:00,53.0,13.69,49.7,49.7,48.9,49.7,48.0,29,32,25,0.384,17.8,20.8,14.7,4.494,5.0,56,17,8.6,0.00304,0.00376,49.8,53.9,14,547,0,78.2,13.52,0.00,0.00
15min,AgWx,beryljct,423,08MAY2020:08:45:00,54.4,13.98,50.0,50.8,50.3,51.0,49.3,28,34,24,0.350,18.1,23.1,14.6,3.683,4.9,40,16,7.2,0.00335,0.00409,49.7,53.8,14,596,0,79.3,13.52,0.00,0.00
15min,AgWx,beryljct,423,08MAY2020:09:00:00,56.1,14.38,51.4,52.1,51.5,52.9,50.2,25,29,23,0.303,16.7,21.8,13.6,3.091,2.8,12,22,7.2,0.00355,0.00414,49.8,53.7,14,643,0,87.0,13.51,0.00,0.00
15min,AgWx,beryljct,423,08MAY2020:09:15:00,58.0,14.32,53.4,53.8,53.1,54.7,51.7,25,33,22,0.318,17.8,25.0,14.3,4.976,3.9,18,21,7.8,0.00393,0.00467,49.8,53.7,14,688,0,87.3,13.51,0.00,0.00
15min,AgWx,beryljct,423,08MAY2020:09:30:00,59.4,14.33,56.2,55.8,55.2,56.2,53.7,24,31,19,0.322,19.4,25.7,13.9,9.47,7.3,29,16,12.2,0.00445,0.00557,49.9,53.6,14,732,0,82.4,13.51,0.00,0.00
15min,AgWx,beryljct,423,08MAY2020:09:45:00,60.4,14.32,55.6,56.5,56.3,57.4,55.2,24,32,19,0.361,19.7,27.3,13.3,6.423,7.5,30,22,11.4,0.00475,0.00594,50.0,53.6,14,774,0,82.1,13.51,0.00,0.00
15min,AgWx,beryljct,423,08MAY2020:10:00:00,61.5,14.21,56.5,57.5,57.2,58.1,56.0,26,30,19,0.305,22.4,27.0,14.8,5.612,7.4,50,26,11.4,0.00496,0.00615,50.2,53.5,14,813,0,84.2,13.51,0.00,0.00
15min,AgWx,beryljct,423,08MAY2020:10:15:00,62.5,14.28,57.5,58.9,58.3,59.3,57.2,26,33,19,0.362,23.1,30.0,15.1,5.722,6.6,39,20,10.5,0.00518,0.00631,50.4,53.4,14,844,0,85.8,13.50,0.00,0.00
15min,AgWx,beryljct,423,08MAY2020:10:30:00,63.7,14.21,60.3,59.9,59.4,60.5,58.3,24,32,19,0.426,22.7,29.7,16.9,3.486,7.2,36,19,13.8,0.00548,0.00674,50.7,53.4,14,880,0,86.0,13.50,0.00,0.00
15min,AgWx,beryljct,423,08MAY2020:10:45:00,64.8,14.25,62.3,62.0,60.5,62.0,59.7,25,34,16,0.499,24.4,32.2,13.8,4.319,6.4,44,28,12.6,0.00568,0.00686,51.0,53.3,14,911,0,88.8,13.50,0.00,0.00
15min,AgWx,beryljct,423,08MAY2020:11:00:00,65.7,14.18,61.6,61.5,61.3,61.9,60.7,25,30,17,0.473,24.7,29.7,16.3,5.831,7.1,50,19,11.5,0.00591,0.00721,51.4,53.3,14,937,0,88.0,13.50,0.00,0.00
15min,AgWx,beryljct,423,08MAY2020:11:15:00,66.6,14.15,62.5,62.0,62.2,63.0,61.2,23,31,16,0.381,24.0,31.5,14.6,4.713,6.1,40,15,10.7,0.00607,0.00730,51.8,53.3,14,960,0,89.5,13.50,0.00,0.00
15min,AgWx,beryljct,423,08MAY2020:11:30:00,67.5,14.13,64.8,63.1,62.8,63.5,62.2,23,29,18,0.565,24.6,30.4,18.1,2.762,6.1,64,21,10.8,0.00623,0.00748,52.3,53.3,14,980,0,90.4,13.50,0.00,0.00
15min,AgWx,beryljct,423,08MAY2020:11:45:00,68.4,13.72,64.4,64.1,63.8,65.5,63.1,21,30,14,0.554,23.3,31.5,13.9,4.691,5.3,48,32,10.2,0.00637,0.00755,52.8,53.3,14,996,0,92.4,13.50,0.00,0.00
15min,AgWx,beryljct,423,08MAY2020:12:00:00,69.5,13.68,65.5,64.7,64.9,65.9,64.2,19,28,14,0.457,21.8,30.3,15.3,4.779,4.7,28,24,10.5,0.00650,0.00765,53.4,53.3,14,1010,0,93.6,13.50,0.00,0.00
15min,AgWx,beryljct,423,08MAY2020:12:15:00,70.7,13.67,64.9,65.3,65.4,66.4,64.4,21,30,13,0.436,23.7,33.0,14.5,4.45,3.5,69,27,8.1,0.00649,0.00747,53.9,53.3,13,1015,0,97.0,13.49,0.00,0.00
15min,AgWx,beryljct,423,08MAY2020:12:30:00,71.7,13.66,66.1,66.7,66.1,67.2,65.2,17,28,13,0.358,19.5,32.0,13.6,1.271,2.0,357,51,7.5,0.00645,0.00724,54.5,53.3,13,1018,0,100.5,13.49,0.00,0.00
15min,AgWx,beryljct,423,08MAY2020:12:45:00,72.9,13.62,68.0,67.3,67.3,68.7,66.4,19,30,12,0.677,22.7,34.6,14.1,3.091,3.0,67,66,7.6,0.00661,0.00754,55.1,53.4,13,1018,0,102.6,13.49,0.00,0.00
15min,AgWx,beryljct,423,08MAY2020:13:00:00,73.6,13.64,67.0,66.8,67.0,67.6,66.4,21,31,15,0.342,25.7,35.7,17.1,2.389,4.2,125,14,6.8,0.00664,0.00775,55.8,53.4,13,1014,0,98.4,13.49,0.00,0.00
15min,AgWx,beryljct,423,08MAY2020:13:15:00,74.0,13.64,69.0,69.8,68.0,69.8,66.9,23,32,16,0.609,28.4,37.3,19.8,2.894,3.5,147,12,8.1,0.00660,0.00758,56.4,53.4,13,1006,0,100.0,13.49,0.00,0.00
15min,AgWx,beryljct,423,08MAY2020:13:30:00,74.5,13.7,69.0,68.4,68.3,69.7,67.7,21,29,17,0.487,27.2,35.1,21.3,2.565,3.3,120,37,5.7,0.00653,0.00750,57.0,53.5,13,993,0,98.9,13.49,0.00,0.00
15min,AgWx,beryljct,423,08MAY2020:13:45:00,75.3,13.58,70.0,70.6,69.9,71.6,68.2,16,24,12,0.547,21.0,30.5,16.1,1.381,1.3,151,20,4.4,0.00632,0.00699,57.7,53.6,13,978,0,104.5,13.49,0.00,0.00
15min,AgWx,beryljct,423,08MAY2020:14:00:00,76.3,13.5,70.4,70.2,69.8,70.5,69.2,20,27,14,0.540,26.9,34.5,17.7,2.148,2.3,119,16,4.8,0.00631,0.00713,58.2,53.6,13,958,0,101.5,13.49,0.00,0.00
15min,AgWx,beryljct,423,08MAY2020:14:15:00,77.2,13.48,70.3,70.6,70.3,71.6,69.5,19,27,14,0.384,26.4,35.4,17.5,1.732,1.7,109,15,3.9,0.00611,0.00682,58.8,53.7,13,937,0,99.2,13.49,0.00,0.00
15min,AgWx,beryljct,423,08MAY2020:14:30:00,78.3,13.45,71.5,71.3,70.9,72.5,70.0,22,35,14,0.913,29.3,42.2,20.6,2.543,2.3,109,9.0,5.0,0.00583,0.00661,59.4,53.8,13,882,0,99.6,13.49,0.00,0.00
15min,AgWx,beryljct,423,08MAY2020:14:45:00,79.0,13.44,72.2,71.1,71.1,71.5,70.7,23,32,15,0.485,30.9,39.7,21.4,2.389,3.1,111,21,5.9,0.00592,0.00683,59.9,53.9,13,880,0,94.8,13.49,0.00,0.00
15min,AgWx,beryljct,423,08MAY2020:15:00:00,79.5,13.43,71.3,71.5,71.4,71.9,71.1,23,31,19,0.656,31.9,39.7,26.2,3.836,3.6,89,13,6.2,0.00576,0.00674,60.3,54.0,13,845,0,90.0,13.49,0.00,0.00
15min,AgWx,beryljct,423,08MAY2020:15:15:00,79.9,13.43,72.1,72.2,71.8,72.2,71.5,26,35,19,0.790,34.5,42.9,27.1,5.612,4.4,95,13,7.2,0.00545,0.00650,60.7,54.1,13,786,0,87.4,13.49,0.00,0.00
15min,AgWx,beryljct,423,08MAY2020:15:30:00,80.1,13.44,72.5,72.7,72.4,72.8,72.0,27,37,16,0.776,35.9,44.5,24.1,4.297,4.2,97,9.7,7.2,0.00523,0.00625,61.1,54.2,13,751,0,85.9,13.49,0.00,0.00
15min,AgWx,beryljct,423,08MAY2020:15:45:00,80.5,13.46,72.9,73.1,72.9,73.2,72.6,26,38,18,0.612,35.6,45.4,26.4,4.099,3.7,93,10,5.7,0.00504,0.00598,61.5,54.3,13,728,0,86.0,13.49,0.00,0.00
15min,AgWx,beryljct,423,08MAY2020:16:00:00,80.7,13.39,72.9,72.7,73.0,73.5,72.3,28,40,18,1.099,37.6,47.1,27.2,4.604,5.2,104,13,7.4,0.00491,0.00603,61.8,54.4,13,684,0,83.7,13.49,0.01,0.00
15min,AgWx,beryljct,423,08MAY2020:16:15:00,80.4,13.44,73.3,73.0,72.8,73.2,72.4,29,37,21,0.749,38.8,44.7,31.4,5.283,5.6,102,12,8.5,0.00452,0.00564,62.0,54.5,13,621,0,81.3,13.49,0.00,0.00
15min,AgWx,beryljct,423,08MAY2020:16:30:00,80.1,13.46,73.4,72.8,72.9,73.2,72.3,32,42,26,0.842,41.4,48.3,36.1,7.782,5.3,117,18,8.1,0.00425,0.00529,62.3,54.7,13,588,0,80.9,13.49,0.01,0.00
15min,AgWx,beryljct,423,08MAY2020:16:45:00,79.9,13.4,73.9,73.2,73.0,73.7,72.6,33,42,26,0.935,41.8,47.9,36.1,4.889,4.8,134,9.2,7.2,0.00388,0.00484,62.4,54.8,13,541,0,80.9,13.49,0.00,0.00
15min,AgWx,beryljct,423,08MAY2020:17:00:00,79.7,13.42,73.0,73.3,73.4,73.7,72.8,32,41,24,0.959,41.9,48.2,34.2,6.204,3.8,132,15,6.2,0.00339,0.00418,62.5,54.9,13,489,0,81.1,13.49,0.00,0.00
15min,AgWx,beryljct,423,08MAY2020:17:15:00,79.6,13.44,74.6,74.4,73.9,74.5,73.2,28,39,18,0.697,38.7,47.1,28.5,4.362,3.3,81,29,6.6,0.00299,0.00372,62.6,55.0,13,436,0,79.7,13.49,0.00,0.00
15min,AgWx,beryljct,423,08MAY2020:17:30:00,79.5,13.41,72.6,72.6,73.8,75.4,71.9,28,37,22,0.806,38.8,44.4,33.4,6.642,4.5,152,23,7.5,0.00283,0.00372,62.6,55.1,13,385,0,79.2,13.49,0.00,0.00
15min,AgWx,beryljct,423,08MAY2020:17:45:00,78.5,13.28,70.7,71.1,71.4,72.5,70.8,34,41,28,0.814,41.4,46.5,37.3,9.34,5.7,144,9.6,9.4,0.00253,0.00348,62.6,55.3,13,332,0,75.8,13.50,0.00,0.00
15min,AgWx,beryljct,423,08MAY2020:18:00:00,77.1,13.19,73.8,73.6,70.9,73.6,69.5,30,35,21,0.593,37.9,40.9,30.4,2.894,7.5,143,29,13.0,0.00250,0.00371,62.5,55.4,13,280,0,73.0,13.50,0.00,0.00
15min,AgWx,beryljct,423,08MAY2020:18:15:00,75.9,13.13,70.8,71.1,70.5,73.5,68.8,32,41,22,0.794,38.6,44.2,31.9,1.863,3.7,127,25,10.4,0.00154,0.00219,62.5,55.5,13,230,0,72.7,13.50,0.00,0.00
15min,AgWx,beryljct,423,08MAY2020:18:30:00,75.2,13.11,71.9,70.9,71.7,72.8,70.4,26,32,21,0.685,35.2,40.2,30.4,7.103,5.6,218,12,9.8,0.00161,0.00257,62.4,55.6,13,181,0,72.0,13.50,0.00,0.00
15min,AgWx,beryljct,423,08MAY2020:18:45:00,74.2,13.08,71.0,69.0,70.4,71.9,68.9,25,28,22,0.635,32.5,34.8,30.2,9.69,7.7,219,8.1,10.7,0.00112,0.00147,62.2,55.7,13,134,0,69.7,13.50,0.01,0.00
15min,AgWx,beryljct,423,08MAY2020:19:00:00,72.7,13.1,67.8,67.9,68.6,69.5,67.9,26,28,24,0.637,32.7,34.3,30.4,6.577,6.3,214,3.5,8.8,0.00085,0.00116,62.1,55.8,13,92,0,66.8,13.50,0.00,0.00
15min,AgWx,beryljct,423,08MAY2020:19:15:00,70.9,13.07,65.3,65.9,66.8,68.0,65.9,27,29,25,0.580,31.4,33.3,30.2,5.722,6.4,214,5.3,8.1,0.00073,0.00100,61.9,55.9,13,52,0,63.7,13.51,0.00,0.00
15min,AgWx,beryljct,423,08MAY2020:19:30:00,68.8,13.05,63.8,63.6,65.0,65.9,63.5,27,29,25,0.558,30.0,30.8,28.6,6.029,6.2,208,3.9,7.5,0.00061,0.00084,61.7,56.0,13,17,0,60.8,13.51,0.00,0.00
15min,AgWx,beryljct,423,08MAY2020:19:45:00,66.6,13.04,60.4,61.2,62.9,64.2,61.2,28,30,26,0.555,29.2,30.4,27.9,5.108,6.0,204,2.8,6.9,0.00052,0.00073,61.6,56.1,13,3,0,58.3,13.51,0.00,0.00
15min,AgWx,beryljct,423,08MAY2020:20:00:00,64.4,13.03,59.8,60.5,60.6,61.3,60.0,31,32,29,0.550,29.5,30.2,28.4,6.27,6.3,215,3.4,7.2,0.00048,0.00067,61.4,56.2,13,0,0,55.9,13.51,0.00,0.00
15min,AgWx,beryljct,423,08MAY2020:20:15:00,62.8,13.02,61.9,62.0,61.4,62.2,60.3,28,31,26,0.498,27.7,29.6,26.6,6.357,7.0,218,2.9,7.9,0.00058,0.00078,61.1,56.3,13,0,0,56.5,13.51,0.00,0.00
15min,AgWx,beryljct,423,08MAY2020:20:30:00,62.0,13.02,62.3,61.6,61.9,62.3,61.5,26,27,25,0.501,26.9,27.6,26.1,6.927,6.6,216,3.5,7.5,0.00056,0.00077,60.9,56.4,13,0,0,56.9,13.51,0.00,0.00
15min,AgWx,beryljct,423,08MAY2020:20:45:00,61.6,13,62.2,62.2,62.1,62.6,61.7,25,27,24,0.484,26.2,27.1,25.0,6.401,6.7,213,4.0,8.3,0.00058,0.00080,60.7,56.4,13,0,0,57.0,13.51,0.00,0.00
15min,AgWx,beryljct,423,08MAY2020:21:00:00,61.5,12.99,65.2,63.5,62.6,63.5,61.9,24,26,22,0.444,25.5,26.6,24.2,11.95,7.2,213,5.8,12.0,0.00064,0.00087,60.5,56.5,13,0,0,57.5,13.51,0.00,0.00
15min,AgWx,beryljct,423,08MAY2020:21:15:00,62.0,12.98,64.4,64.0,64.3,65.0,63.7,22,23,20,0.439,24.3,25.2,23.2,8,8.0,216,7.9,10.5,0.00077,0.00103,60.3,56.5,13,0,0,59.6,13.51,0.00,0.00
15min,AgWx,beryljct,423,08MAY2020:21:30:00,62.2,12.97,57.2,60.7,62.3,64.2,58.1,24,32,22,0.489,25.2,28.7,23.6,4.362,6.3,199,16,9.8,0.00057,0.00079,60.0,56.6,13,0,0,57.4,13.51,0.00,0.00
15min,AgWx,beryljct,423,08MAY2020:21:45:00,61.2,12.98,54.1,54.1,56.7,60.8,54.0,32,38,26,0.526,27.3,29.2,25.3,5.064,5.5,176,13,7.7,0.00037,0.00052,59.8,56.6,13,0,0,51.8,13.51,0.00,0.00
15min,AgWx,beryljct,423,08MAY2020:22:00:00,59.3,12.96,56.1,55.3,55.6,60.4,52.6,34,43,24,0.527,27.4,30.8,22.9,6.686,5.9,94,60,9.0,0.00038,0.00053,59.6,56.6,13,0,0,49.9,13.51,0.00,0.00
15min,AgWx,beryljct,423,08MAY2020:22:15:00,57.7,12.93,52.8,52.6,53.7,56.5,51.2,39,47,31,0.529,29.3,31.9,25.9,1.535,2.4,51,90,6.4,0.00001,0.00006,59.4,56.7,13,0,0,47.4,13.51,0.00,0.00
15min,AgWx,beryljct,423,08MAY2020:22:30:00,56.2,12.95,59.3,56.6,53.6,57.2,50.5,39,53,30,0.473,29.2,34.4,25.6,1.907,3.0,236,35,5.4,0.00007,0.00014,59.2,56.7,13,0,0,46.8,13.51,0.00,0.00
15min,AgWx,bigpiney,439,08MAY2020:00:00:00,33.3,12.63,30.6,29.9,29.6,30.4,28.5,74,76,72,0.423,22.4,23.1,21.4,4.165,5.0,211,6.3,5.9,-0.00001,0.00000,39.0,32.9,55,0,0,0.0,6.45,0.00,0.00
15min,AgWx,bigpiney,439,08MAY2020:00:15:00,32.9,12.63,31.2,31.1,30.7,31.1,30.0,74,77,72,0.429,23.3,23.9,23.0,5.086,5.0,220,7.5,5.8,-0.00001,0.00000,38.9,32.9,55,0,0,0.0,6.45,0.00,0.00
15min,AgWx,bigpiney,439,08MAY2020:00:30:00,32.8,12.61,30.8,30.8,30.9,31.3,30.3,73,75,72,0.433,23.4,24.0,22.7,4.932,5.7,215,6.9,6.8,0.00001,0.00002,38.8,33.0,55,0,0,0.0,6.45,0.00,0.00
15min,AgWx,bigpiney,439,08MAY2020:00:45:00,32.8,12.61,30.7,30.7,30.8,31.0,30.6,74,75,73,0.430,23.6,23.8,23.4,5.502,6.1,225,9.3,7.0,0.00001,0.00003,38.6,32.9,55,0,0,0.0,6.45,0.00,0.00
15min,AgWx,bigpiney,439,08MAY2020:01:00:00,32.7,12.59,31.5,31.1,30.9,31.2,30.5,75,75,74,0.442,23.8,24.2,23.4,4.735,5.7,235,6.7,6.8,0.00000,0.00002,38.5,32.8,55,0,0,0.0,6.45,0.00,0.00
15min,AgWx,bigpiney,439,08MAY2020:01:15:00,32.7,12.59,31.6,31.2,31.1,31.3,31.0,75,77,74,0.455,24.1,24.9,23.8,4.867,5.2,243,5.1,7.1,-0.00001,0.00000,38.3,32.9,55,0,0,0.0,6.45,0.00,0.00
15min,AgWx,bigpiney,439,08MAY2020:01:30:00,32.6,12.57,32.3,31.6,31.0,31.6,30.6,75,77,73,0.437,23.9,24.8,23.6,8.79,5.8,236,6.7,8.8,0.00000,0.00002,38.2,32.9,55,0,0,0.0,6.45,0.00,0.00
15min,AgWx,bigpiney,439,08MAY2020:01:45:00,32.6,12.57,32.7,32.3,32.0,32.4,31.6,71,73,69,0.427,23.6,23.8,23.3,5.831,6.2,221,8.1,8.8,0.00003,0.00005,38.0,33.0,55,0,0,0.0,6.45,0.00,0.00
15min,AgWx,bigpiney,439,08MAY2020:02:00:00,32.7,12.56,29.1,29.2,31.2,32.4,29.2,71,73,69,0.399,22.9,23.7,21.6,4.099,4.4,189,14,6.7,-0.00001,-0.00000,37.9,32.9,55,0,0,0.0,6.45,0.00,0.00
15min,AgWx,bigpiney,439,08MAY2020:02:15:00,32.4,12.55,30.1,29.7,29.1,29.8,28.5,76,78,73,0.422,22.4,23.2,21.7,5.524,4.9,171,8.8,6.2,-0.00002,-0.00001,37.8,32.9,55,0,0,0.0,6.45,0.00,0.00
15min,AgWx,bigpiney,439,08MAY2020:02:30:00,32.1,12.53,30.3,29.9,30.1,30.8,29.7,75,76,74,0.428,23.2,23.5,22.9,6.27,5.2,163,7.9,7.8,-0.00001,0.00000,37.6,32.8,55,0,0,0.0,6.45,0.00,0.00
15min,AgWx,bigpiney,439,08MAY2020:02:45:00,31.9,12.52,30.7,30.3,30.3,30.6,29.9,77,78,76,0.445,24.0,24.3,23.3,3.99,5.5,156,7.6,7.8,-0.00001,-0.00000,37.5,32.9,55,0,0,0.0,6.45,0.00,0.00
15min,AgWx,bigpiney,439,08MAY2020:03:00:00,31.8,12.51,29.3,29.1,29.8,30.3,29.1,78,79,76,0.432,23.7,24.3,23.3,5.261,5.6,167,5.7,9.9,-0.00001,-0.00000,37.3,32.9,55,0,0,0.0,6.45,0.00,0.00
15min,AgWx,bigpiney,439,08MAY2020:03:15:00,31.5,12.5,29.4,29.2,29.3,29.5,28.9,79,80,79,0.431,23.6,23.9,23.3,5.634,5.3,165,3.5,6.3,-0.00002,-0.00002,37.2,32.9,55,0,0,0.0,6.45,0.00,0.00
15min,AgWx,bigpiney,439,08MAY2020:03:30:00,31.1,12.48,28.6,27.7,28.5,29.3,27.7,80,82,79,0.419,23.2,23.6,22.8,4.691,4.9,170,3.6,6.1,-0.00003,-0.00003,37.1,32.9,55,0,0,0.0,6.45,0.00,0.00
15min,AgWx,bigpiney,439,08MAY2020:03:45:00,30.6,12.45,26.2,26.1,27.0,28.1,26.1,83,85,81,0.406,22.5,23.3,22.0,2.587,3.4,161,6.2,5.2,-0.00008,-0.00008,37.0,32.8,55,0,0,0.0,6.45,0.00,0.00
15min,AgWx,bigpiney,439,08MAY2020:04:00:00,30.0,12.45,25.9,25.3,24.8,26.1,24.0,86,89,84,0.411,21.1,22.4,20.4,2.543,2.3,186,14,3.0,-0.00011,-0.00013,36.8,32.8,55,0,0,0.0,6.45,0.00,0.00
15min,AgWx,bigpiney,439,08MAY2020:04:15:00,29.3,12.43,25.7,25.4,25.5,25.9,25.3,88,89,87,0.409,22.5,22.7,22.3,1.995,3.4,213,7.5,4.5,-0.00009,-0.00010,36.7,32.8,55,0,0,0.0,6.45,0.00,0.00
15min,AgWx,bigpiney,439,08MAY2020:04:30:00,28.9,12.41,25.3,25.0,25.0,25.4,24.5,87,88,85,0.391,21.6,22.4,21.1,4.713,3.4,197,21,5.2,-0.00008,-0.00009,36.6,32.8,55,0,0,0.0,6.45,0.00,0.00
15min,AgWx,bigpiney,439,08MAY2020:04:45:00,28.6,12.41,26.2,25.7,25.7,26.2,25.0,86,87,85,0.408,22.1,22.6,21.2,1.337,3.3,215,8.5,4.8,-0.00008,-0.00009,36.4,32.8,55,0,0,0.0,6.45,0.00,0.00
15min,AgWx,bigpiney,439,08MAY2020:05:00:00,28.5,12.4,26.4,26.1,26.5,27.1,25.7,86,88,84,0.411,22.8,23.2,22.2,2.236,1.9,203,11,3.0,-0.00012,-0.00016,36.3,32.8,55,1,0,0.0,6.45,0.00,0.00
15min,AgWx,bigpiney,439,08MAY2020:05:15:00,28.5,12.41,24.0,24.2,25.9,26.6,24.2,85,87,84,0.378,22.1,22.8,20.4,4.121,2.8,217,6.8,4.7,-0.00009,-0.00010,36.2,32.8,55,8,0,0.0,6.45,0.00,0.00
15min,AgWx,bigpiney,439,08MAY2020:05:30:00,28.2,12.42,24.2,23.7,23.7,24.1,23.6,88,88,86,0.383,20.6,20.9,20.3,2.938,3.5,218,5.8,4.3,-0.00015,-0.00012,36.1,32.8,55,18,0,0.0,6.45,0.00,0.00
15min,AgWx,bigpiney,439,08MAY2020:05:45:00,27.8,12.46,23.6,23.6,23.2,23.7,22.8,88,89,87,0.384,20.3,20.8,19.6,2.302,3.5,214,7.6,4.3,-0.00004,-0.00000,36.0,32.8,55,36,0,0.0,6.45,0.00,0.00
15min,AgWx,bigpiney,439,08MAY2020:06:00:00,27.7,12.48,25.5,24.8,23.9,24.8,23.3,88,89,87,0.402,21.0,21.9,20.5,3.244,3.5,210,5.8,4.8,0.00005,0.00009,35.9,32.7,55,97,0,0.0,6.45,0.00,0.00
15min,AgWx,bigpiney,439,08MAY2020:06:15:00,28.2,12.51,28.3,27.6,26.2,27.6,24.9,87,89,85,0.433,22.9,23.7,21.8,1.491,2.2,226,8.0,3.7,0.00018,0.00022,35.7,32.7,55,136,0,0.0,6.45,0.00,0.00
15min,AgWx,bigpiney,439,08MAY2020:06:30:00,29.3,12.53,30.7,29.7,29.0,29.9,27.7,83,86,82,0.456,24.6,25.3,23.8,0.592,0.9,234,9.3,1.6,0.00036,0.00041,35.6,32.7,55,179,0,0.0,6.45,0.00,0.00
15min,AgWx,bigpiney,439,08MAY2020:06:45:00,31.0,12.56,30.3,30.1,30.0,30.4,29.7,82,84,80,0.459,25.3,25.8,24.9,0.614,1.3,88,38,3.5,0.00058,0.00064,35.5,32.7,55,227,0,0.0,6.45,0.00,0.00
15min,AgWx,bigpiney,439,08MAY2020:07:00:00,32.7,12.73,31.2,30.9,30.5,31.0,30.0,82,84,81,0.480,25.7,26.4,25.0,3.025,1.9,121,20,3.5,0.00078,0.00087,35.4,32.7,55,277,0,0.0,6.45,0.00,0.00
15min,AgWx,bigpiney,439,08MAY2020:07:15:00,34.2,13.1,32.6,32.0,31.6,32.4,30.9,82,83,80,0.496,26.7,27.9,25.9,3.157,3.4,86,16,5.4,0.00098,0.00111,35.3,32.7,55,327,0,0.0,6.45,0.00,0.00
15min,AgWx,bigpiney,439,08MAY2020:07:30:00,35.3,13.61,32.6,32.7,32.6,33.4,32.0,79,83,77,0.485,27.0,27.8,26.2,4.779,4.3,86,17,8.0,0.00119,0.00136,35.2,32.7,55,376,0,0.0,6.45,0.00,0.00
15min,AgWx,bigpiney,439,08MAY2020:07:45:00,36.3,13.91,33.3,33.5,33.2,33.7,32.7,77,79,75,0.503,26.9,27.8,26.2,4.231,4.0,84,19,6.8,0.00142,0.00160,35.1,32.7,55,426,0,0.0,6.45,0.00,0.00
15min,AgWx,bigpiney,439,08MAY2020:08:00:00,37.4,14.77,35.3,34.5,34.3,35.0,33.4,76,79,74,0.504,27.5,28.3,26.6,7.147,5.1,90,16,8.6,0.00162,0.00185,35.0,32.6,55,475,0,0.0,6.45,0.00,0.00
15min,AgWx,bigpiney,439,08MAY2020:08:15:00,38.6,14.75,37.2,36.2,35.3,36.2,34.5,72,76,68,0.507,27.2,29.0,26.2,5.086,6.1,115,15,10.1,0.00179,0.00207,34.9,32.6,55,505,0,0.0,6.45,0.00,0.00
15min,AgWx,bigpiney,439,08MAY2020:08:30:00,39.8,14.64,36.8,36.7,36.2,37.0,35.7,69,72,66,0.491,26.9,28.5,25.8,10.11,7.1,113,13,11.0,0.00205,0.00240,34.8,32.6,55,569,0,0.0,6.45,0.00,0.00
15min,AgWx,bigpiney,439,08MAY2020:08:45:00,40.9,14.6,37.8,37.4,36.9,38.0,36.2,66,70,64,0.507,26.6,29.2,25.6,7.848,5.7,122,20,11.3,0.00231,0.00266,34.7,32.6,55,611,0,0.0,6.45,0.00,0.00
15min,AgWx,bigpiney,439,08MAY2020:09:00:00,42.0,14.75,38.8,38.4,37.8,38.6,37.1,65,68,62,0.503,27.2,29.0,25.3,6.686,6.3,111,22,11.3,0.00252,0.00291,34.7,32.6,55,655,0,0.0,6.45,0.00,0.00
15min,AgWx,bigpiney,439,08MAY2020:09:15:00,43.0,14.78,37.8,39.1,38.4,39.1,37.8,63,65,60,0.512,26.9,28.0,26.0,10.08,7.3,122,26,11.8,0.00269,0.00313,34.6,32.5,55,694,0,0.0,6.45,0.00,0.00